Fort Morgan, CO

11:26 AM MST on November 20, 2017 (GMT -0700)
Fort Morgan

Weather History for KFMM - June, 2013

Change the Weather History Date:

Tuesday, June 4, 2013

  Actual Average (KAKO) Record (KAKO)
Temperature  
Mean Temperature 63 °F -  
Max Temperature 76 °F 77 °F 96 °F (1977)
Min Temperature 50 °F 49 °F 31 °F (1943)
Degree Days  
Heating Degree Days 2    
Growing Degree Days 13 (Base 50)    
Moisture  
Dew Point 45 °F    
Average Humidity 57    
Maximum Humidity 85    
Minimum Humidity 29    
Precipitation  
Precipitation 0.00 in - - ()
Sea Level Pressure  
Sea Level Pressure 30.04 in    
Wind  
Wind Speed 13 mph (NE)    
Max Wind Speed 28 mph    
Max Gust Speed 37 mph    
Visibility 10 miles    
Events Thunderstorm    
Averages and records for this station are not official NWS values.
T = Trace of Precipitation, MM = Missing Value Source: NWS Daily Summary

Daily Weather History Graph

Daily Weather History Graph

Search for Another Location

Airport or City:

Trip Planner

Search our weather history database for the weather conditions in past years. The results will help you decide how hot, cold, wet, or windy it might be!

Date:

Astronomy

Jun. 04, 2013 Rise Set
Actual Time 5:26 AM MDT 8:21 PM MDT
Civil Twilight 4:53 AM MDT 8:53 PM MDT
Nautical Twilight 4:12 AM MDT 9:35 PM MDT
Astronomical Twilight 3:24 AM MDT 10:23 PM MDT
Moon 2:57 AM MDT (6/4) 4:52 PM MDT (6/4)
Length of Visible Light 16h 00m
Length of Day
14h 55m
Waning Crescent, 14% of the Moon is Illuminated
Jun 4
Waning Crescent
Jun 8
New
Jun 16
First Quarter
Jun 23
Full
Jun 29
Last Quarter

Hourly Weather History & Observations

Time (MDT) Temp. Dew Point Humidity Pressure Visibility Wind Dir Wind Speed Gust Speed Precip Events Conditions
12:15 AM 62.1 °F 44.1 °F 52% 29.91 in 10.0 mi North 11.5 mph - N/A   Clear
12:35 AM 60.3 °F 44.4 °F 56% 29.91 in 10.0 mi North 13.8 mph - N/A   Clear
12:55 AM 59.4 °F 45.0 °F 59% 29.92 in 10.0 mi North 12.7 mph - N/A   Clear
1:15 AM 58.5 °F 46.2 °F 64% 29.92 in 10.0 mi North 15.0 mph - N/A   Clear
1:35 AM 57.6 °F 46.6 °F 67% 29.93 in 10.0 mi North 15.0 mph - N/A   Clear
1:55 AM 57.6 °F 47.5 °F 69% 29.94 in 10.0 mi North 16.1 mph 21.9 mph N/A   Clear
2:15 AM 58.1 °F 47.7 °F 68% 29.94 in 10.0 mi NNE 17.3 mph 23.0 mph N/A   Clear
2:35 AM 57.2 °F 47.7 °F 70% 29.95 in 10.0 mi North 15.0 mph 26.5 mph N/A   Clear
2:55 AM 55.6 °F 47.8 °F 75% 29.96 in 10.0 mi North 18.4 mph - N/A   Clear
3:15 AM 54.9 °F 48.2 °F 78% 29.97 in 10.0 mi North 13.8 mph - N/A   Clear
3:35 AM 54.5 °F 48.6 °F 80% 29.98 in 10.0 mi North 12.7 mph - N/A   Clear
3:55 AM 53.6 °F 48.4 °F 82% 29.99 in 10.0 mi North 13.8 mph - N/A   Clear
4:15 AM 53.1 °F 48.2 °F 84% 30.00 in 10.0 mi North 15.0 mph 19.6 mph N/A   Clear
4:35 AM 52.9 °F 48.2 °F 84% 30.00 in 10.0 mi North 10.4 mph - N/A   Clear
4:55 AM 52.5 °F 47.7 °F 84% 30.00 in 10.0 mi North 13.8 mph - N/A   Clear
5:15 AM 52.0 °F 47.1 °F 83% 30.01 in 10.0 mi North 17.3 mph 23.0 mph N/A   Clear
5:35 AM 52.0 °F 46.6 °F 82% 30.02 in 10.0 mi North 18.4 mph 24.2 mph N/A   Clear
5:55 AM 51.8 °F 46.0 °F 81% 30.03 in 10.0 mi North 21.9 mph 27.6 mph N/A   Clear
6:15 AM 51.8 °F 45.0 °F 77% 30.04 in 10.0 mi North 19.6 mph 26.5 mph N/A   Clear
6:35 AM 52.2 °F 43.5 °F 72% 30.04 in 10.0 mi North 19.6 mph 26.5 mph N/A   Clear
6:55 AM 53.2 °F 43.2 °F 69% 30.05 in 10.0 mi North 16.1 mph - N/A   Clear
7:15 AM 52.7 °F 42.8 °F 69% 30.06 in 10.0 mi North 18.4 mph - N/A   Scattered Clouds
7:35 AM 54.7 °F 42.4 °F 63% 30.07 in 10.0 mi NNE 15.0 mph 21.9 mph N/A   Mostly Cloudy
7:55 AM 55.0 °F 41.9 °F 61% 30.08 in 10.0 mi NNE 11.5 mph - N/A   Overcast
8:15 AM 56.3 °F 42.1 °F 59% 30.10 in 10.0 mi NE 8.1 mph - N/A   Overcast
8:35 AM 57.4 °F 42.1 °F 57% 30.10 in 10.0 mi NNE 9.2 mph - N/A   Overcast
8:55 AM 58.1 °F 42.1 °F 55% 30.10 in 10.0 mi NE 6.9 mph - N/A   Mostly Cloudy
9:15 AM 59.4 °F 42.1 °F 53% 30.10 in 10.0 mi NE 9.2 mph - N/A   Mostly Cloudy
9:35 AM 60.4 °F 42.1 °F 51% 30.09 in 10.0 mi NE 8.1 mph - N/A   Mostly Cloudy
9:55 AM 60.1 °F 41.9 °F 51% 30.09 in 10.0 mi ENE 10.4 mph - N/A   Overcast
10:15 AM 61.7 °F 42.1 °F 49% 30.09 in 10.0 mi NE 8.1 mph - N/A   Scattered Clouds
10:35 AM 63.7 °F 41.9 °F 45% 30.09 in 10.0 mi East 4.6 mph - N/A   Clear
10:55 AM 63.7 °F 42.1 °F 45% 30.08 in 10.0 mi East 4.6 mph - N/A   Clear
11:15 AM 65.7 °F 42.8 °F 43% 30.08 in 10.0 mi East 6.9 mph - N/A   Clear
11:35 AM 67.1 °F 43.5 °F 42% 30.07 in 10.0 mi NE 8.1 mph - N/A   Clear
11:55 AM 68.5 °F 44.1 °F 41% 30.06 in 10.0 mi ESE 6.9 mph - N/A   Clear
12:15 PM 69.3 °F 44.1 °F 40% 30.05 in 10.0 mi Calm Calm - N/A   Clear
12:35 PM 69.8 °F 44.1 °F 39% 30.05 in 10.0 mi ENE 6.9 mph - N/A   Clear
12:55 PM 71.2 °F 44.4 °F 38% 30.03 in 10.0 mi NE 9.2 mph - N/A   Clear
1:15 PM 71.8 °F 44.1 °F 37% 30.03 in 10.0 mi East 6.9 mph - N/A   Clear
1:35 PM 73.0 °F 43.9 °F 35% 30.02 in 10.0 mi East 5.8 mph 10.4 mph N/A   Clear
1:55 PM 74.3 °F 44.2 °F 34% 30.02 in 10.0 mi East 12.7 mph 17.3 mph N/A   Clear
2:15 PM 74.3 °F 43.7 °F 33% 30.02 in 10.0 mi ENE 8.1 mph - N/A   Clear
2:35 PM 76.1 °F 43.7 °F 31% 30.01 in 10.0 mi East 9.2 mph - N/A   Clear
2:55 PM 75.7 °F 43.9 °F 32% 30.02 in 10.0 mi ESE 10.4 mph - N/A   Clear
3:15 PM 75.6 °F 43.0 °F 31% 30.02 in 10.0 mi SE 11.5 mph - N/A   Scattered Clouds
3:35 PM 75.2 °F 41.7 °F 30% 30.02 in 10.0 mi ENE 9.2 mph - N/A   Clear
3:55 PM 76.3 °F 42.1 °F 29% 30.02 in 10.0 mi ESE 6.9 mph 20.7 mph N/A   Clear
4:15 PM 75.7 °F 42.6 °F 31% 30.00 in 10.0 mi East 8.1 mph 18.4 mph N/A   Clear
4:35 PM 74.1 °F 42.8 °F 32% 30.01 in 10.0 mi East 9.2 mph - N/A   Scattered Clouds
4:55 PM 75.6 °F 42.8 °F 31% 30.00 in 10.0 mi ENE 12.7 mph 16.1 mph N/A   Scattered Clouds
5:15 PM 75.7 °F 42.8 °F 31% 29.99 in 10.0 mi East 15.0 mph 20.7 mph N/A   Clear
5:35 PM 75.0 °F 43.2 °F 32% 29.99 in 10.0 mi East 12.7 mph 18.4 mph N/A   Scattered Clouds
5:55 PM 73.0 °F 43.2 °F 34% 29.98 in 10.0 mi East 15.0 mph - N/A   Scattered Clouds
6:15 PM 72.5 °F 43.3 °F 35% 30.00 in 10.0 mi East 13.8 mph 17.3 mph N/A   Scattered Clouds
6:35 PM 72.0 °F 43.7 °F 36% 30.00 in 10.0 mi East 16.1 mph 20.7 mph N/A   Mostly Cloudy
6:55 PM 70.9 °F 43.9 °F 38% 30.02 in 10.0 mi East 13.8 mph - N/A   Mostly Cloudy
7:15 PM 72.0 °F 44.8 °F 38% 30.02 in 10.0 mi ENE 15.0 mph 20.7 mph N/A   Mostly Cloudy
7:35 PM 70.0 °F 45.1 °F 41% 30.03 in 10.0 mi ENE 15.0 mph 21.9 mph N/A   Scattered Clouds
7:55 PM 68.4 °F 47.3 °F 47% 30.08 in 10.0 mi NNE 17.3 mph 28.8 mph N/A   Mostly Cloudy
8:15 PM 58.1 °F 48.7 °F 71% 30.08 in 10.0 mi NNE 27.6 mph 36.8 mph N/A Thunderstorm Overcast
8:35 PM 56.1 °F 49.3 °F 78% 30.07 in 7.0 mi North - - N/A Thunderstorm Overcast
8:55 PM 54.9 °F 49.5 °F 82% 30.11 in 10.0 mi NNE 21.9 mph 28.8 mph N/A   Overcast
9:15 PM 54.7 °F 48.0 °F 78% 30.13 in 10.0 mi NNE 25.3 mph 34.5 mph N/A   Overcast
9:35 PM 52.9 °F 48.4 °F 85% 30.13 in 10.0 mi NNE 24.2 mph 32.2 mph N/A Thunderstorm Overcast
9:55 PM 52.5 °F 48.2 °F 85% 30.15 in 10.0 mi NNE 19.6 mph 26.5 mph N/A   Overcast
10:15 PM 52.7 °F 47.3 °F 82% 30.17 in 10.0 mi North 15.0 mph 23.0 mph N/A   Overcast
10:35 PM 51.8 °F 46.8 °F 83% 30.17 in 7.0 mi NNE 13.8 mph 23.0 mph N/A   Overcast
10:55 PM 51.4 °F 47.1 °F 85% 30.18 in 10.0 mi North 17.3 mph 20.7 mph N/A   Overcast
11:15 PM 51.1 °F 46.6 °F 85% 30.15 in 10.0 mi NNE 23.0 mph 31.1 mph N/A Thunderstorm Overcast
11:35 PM 50.9 °F 46.4 °F 85% 30.16 in 10.0 mi NNE 20.7 mph 27.6 mph N/A   Overcast
11:55 PM 51.1 °F 45.5 °F 81% 30.16 in 10.0 mi NNE 20.7 mph 29.9 mph N/A   Overcast